Location: Hurstbourne Priors
(51.2000°N, 1.3667°W)
Time: 22:06:46
(UTC+00:00)

Altair - Pass Details

Date: 14 April 2021
Orbit: 1501 x 1683 km, 47.2° (Epoch: 13 May)

Event Time Altitude Azimuth Distance (km) Brightness Sun altitude
Rises 09:31:05 0° 254° (WSW) 4,802 9.8 37.7°
Reaches altitude 10° 09:34:14 10° 253° (WSW) 3,793 9.4 38.1°
Maximum altitude 09:43:43 69° 173° (S) 1,635 8.7 39.2°
Drops below altitude 10° 09:52:53 10° 92° (E) 3,673 10.2 40.3°
Sets 09:55:53 0° 90° (E) 4,644 10.5 40.6°
